Content
SEND FEEDBACK

Daily
Averages
Monthly
Summary
Mexico

CANCUN, QUINTANA ROO


Home > North America > Mexico > Quintana Roo
Elevation: 9 meters     Latitude: 21 09N     Longitude: 086 49W

WEATHER
 
SELECT A DAY
Number of Records: 166,321;   Date Range: 1/1/95 - 10/19/14
 
SHARE

PRINT THIS DATA

[ ← Previous Day ]
WEATHER ALMANAC - 22 MARCH, 2013
[ Next Day → ]
[ °F ]   °C
Weather ElementAverageHighLow
Temperature26.8 °C29 °C (10:43 am)25 °C (1:41 am)
Dewpoint21.8 °C23 °C (5:40 pm)21 °C (3:45 am)
Humidity74 %83 % (1:41 am)62 % (12:41 pm)
Barometer1010.8 hPa1012.5 hPa (9:48 pm)1009.1 hPa (2:40 am)
Wind Speed25.6 km/h35.2 km/h (2:48 pm)
Weather ElementAverage
Visibility11.3 km
Wind DirectionSSE (155.2 °)

Weather ElementTotal
Precipitation---
Cooling Degree Days8.7 (Base 18.3)
Growing Degree Days17 (Base 10)
Averaged from 23 records on 22 March, 2013
WEATHER CONDITIONS BREAKOUT
WIND DIRECTION BREAKOUT
WEATHER BY HOUR - 22 MARCH, 2013
[ °F ]   °C
Local TimeTemperatureDewpointHumidityBarometerVisibilityWind DirectionWind SpeedGust SpeedPrecipitationEventsConditions
1:41 AM25 °C22 °C83 %1009.8 hPa11.3 kmSSE (150°)22.2 km/hScattered Clouds
2:40 AM25 °C22 °C83 %1009.1 hPa11.3 kmSSE (150°)20.4 km/hScattered Clouds
3:45 AM25 °C21 °C78 %1009.1 hPa11.3 kmSSE (150°)22.2 km/hScattered Clouds
4:40 AM25 °C21 °C78 %1009.5 hPa11.3 kmSSE (160°)22.2 km/hScattered Clouds
5:43 AM25 °C21 °C78 %1009.8 hPa11.3 kmSSE (160°)22.2 km/hScattered Clouds
6:42 AM26 °C22 °C78 %1011.2 hPa11.3 kmSSE (160°)22.2 km/hScattered Clouds
7:42 AM27 °C21 °C70 %1011.5 hPa11.3 kmSSE (160°)27.8 km/hScattered Clouds
8:43 AM28 °C21 °C66 %1011.9 hPa11.3 kmSSE (160°)29.6 km/hMostly Cloudy
9:47 AM28 °C22 °C70 %1012.2 hPa11.3 kmSSE (150°)29.6 km/hMostly Cloudy
10:43 AM29 °C22 °C66 %1012.2 hPa11.3 kmSSE (160°)33.3 km/hMostly Cloudy
11:44 AM29 °C22 °C66 %1011.9 hPa11.3 kmSouth (170°)33.3 km/hMostly Cloudy
12:41 PM29 °C21 °C62 %1010.8 hPa11.3 kmSSE (160°)25.9 km/hScattered Clouds
1:44 PM29 °C22 °C66 %1010.2 hPa11.3 kmSSE (150°)29.6 km/hMostly Cloudy
2:48 PM29 °C22 °C66 %1010.5 hPa11.3 kmSSE (160°)35.2 km/hMostly Cloudy
3:40 PM28 °C22 °C70 %1009.8 hPa11.3 kmSSE (160°)27.8 km/hScattered Clouds
4:42 PM27 °C22 °C74 %1010.2 hPa11.3 kmSSE (160°)27.8 km/hScattered Clouds
5:40 PM27 °C23 °C79 %1010.8 hPa11.3 kmSSE (150°)22.2 km/hMostly Cloudy
6:40 PM26 °C22 °C78 %1011.2 hPa11.3 kmSSE (150°)16.7 km/hMostly Cloudy
7:40 PM26 °C22 °C78 %1011.9 hPa11.3 kmSSE (150°)16.7 km/hScattered Clouds
8:41 PM26 °C22 °C78 %1012.2 hPa11.3 kmSSE (150°)25.9 km/hScattered Clouds
9:48 PM26 °C22 °C78 %1012.5 hPa11.3 kmSSE (160°)27.8 km/hScattered Clouds
10:46 PM26 °C22 °C78 %1012.2 hPa11.3 kmSE (140°)22.2 km/hPartly Cloudy
11:47 PM26 °C22 °C78 %1011.5 hPa11.3 kmSSE (150°)25.9 km/hClear
Hourly data recorded from MMUN, located 0 kilometers away from Cancun, Quintana Roo







STORIES FROM OUR PARTNERS